Location: Vale
(35.4830°N, 81.3830°W)
Time: 00:06:22
(UTC-05:00)

Amateur Radio Satellites - All Passes

Search period start: 22 February 2017 23:36
Search period end: 23 February 2017 23:36
Location: Vale, 35.4830°N, 81.3830°W

Satellite Date Start Highest point End Downlink Frequencies (MHz)
Time Altitude Azimuth
SO-50 22 Feb 23:42:00 23:46:21 37° 305° (NW) 23:50:40 436.795
ESTCUBE 1 22 Feb 23:43:26 23:47:38 38° 261° (W) 23:51:52 437.505/2401.250
JUGNU 22 Feb 23:54:28 23:58:08 17° 178° (S) 00:01:48 437.505
50 SAT 22 Feb 23:57:45 00:01:13 64° 76° (ENE) 00:04:41 437.505
DUCHIFAT 1 23 Feb 00:04:35 00:08:48 59° 100° (E) 00:13:00 145.980
EO-79 23 Feb 00:11:53 00:16:11 88° 100° (E) 00:20:28 145.935-145.965
VELOX 1 23 Feb 00:21:25 00:25:35 44° 261° (W) 00:29:47 145.980
DX 1 23 Feb 00:22:20 00:26:39 78° 76° (ENE) 00:30:59 434.975-435.025
POLYITAN 1 23 Feb 00:28:34 00:32:47 57° 285° (WNW) 00:36:59 437.675
RS-15 23 Feb 00:29:00 00:37:15 20° 24° (NNE) 00:45:22 29.354- 29.394
NANOSAT C BR1 23 Feb 00:30:50 00:35:02 59° 285° (WNW) 00:39:13 145.865
AIST 2D 23 Feb 00:31:02 00:33:52 22° 288° (WNW) 00:36:40 435.315
QB50P2 23 Feb 00:31:28 00:35:36 48° 286° (WNW) 00:39:43 145.880/145.840
O/OREOS (USA 219) 23 Feb 00:34:52 00:37:55 18° 300° (WNW) 00:40:58 437.305
UKube-1 23 Feb 00:40:17 00:44:35 89° 76° (ENE) 00:48:53 .
FO-29 23 Feb 00:45:10 00:50:53 24° 299° (WNW) 00:56:16 435.910
SRMSAT 23 Feb 00:49:13 00:51:57 13° 169° (SSE) 00:54:40 437.500
SPROUT 23 Feb 00:51:56 00:55:23 24° 264° (W) 00:58:53 437.525
BUGSAT 1 23 Feb 01:13:25 01:17:37 63° 285° (WNW) 01:21:48 437.445
ITUPSAT 1 23 Feb 01:13:59 01:16:10 13° 64° (ENE) 01:18:21 437.325
BEESAT 23 Feb 01:21:42 01:24:37 16° 65° (ENE) 01:27:32 436.000
Oscar 19 23 Feb 01:35:53 01:40:53 52° 100° (E) 01:45:51 437.125/150
DUCHIFAT 1 23 Feb 01:43:02 01:43:55 11° 295° (WNW) 01:44:48 145.980
JUGNU 23 Feb 01:43:12 01:46:23 15° 188° (S) 01:49:35 437.505
Gurwin Techsat 1B 23 Feb 01:58:09 02:03:16 46° 99° (E) 02:08:21 435.225
MOZHAYETS 4 23 Feb 02:07:36 02:10:21 16° 67° (ENE) 02:13:08
PCSat 23 Feb 02:17:01 02:22:23 61° 61° (ENE) 02:27:44 145.827
SRMSAT 23 Feb 02:36:32 02:40:21 17° 179° (S) 02:44:12 437.500
RS-15 23 Feb 02:41:18 02:53:24 57° 53° (NE) 03:04:55 29.354- 29.394
ITUPSAT 1 23 Feb 02:48:42 02:53:26 60° 259° (W) 02:58:12 437.325
BEESAT 23 Feb 02:57:22 03:01:58 47° 260° (W) 03:06:35 436.000
KKS-1 23 Feb 02:59:14 03:01:30 14° 65° (ENE) 03:03:46 437.445
Oscar 19 23 Feb 03:16:34 03:19:44 17° 295° (WNW) 03:22:54 437.125/150
Gurwin Techsat 1B 23 Feb 03:39:05 03:42:49 20° 294° (WNW) 03:46:35 435.225
STARS 23 Feb 03:40:19 03:43:10 17° 67° (ENE) 03:46:02 437.465
ITAMSAT 1 23 Feb 03:42:31 03:47:47 83° 103° (ESE) 03:53:00 435.822/435.867
MOZHAYETS 4 23 Feb 03:42:40 03:47:06 45° 261° (W) 03:51:34
AO-85 23 Feb 03:46:28 03:48:52 14° 110° (ESE) 03:51:11 145.980
AO-7 23 Feb 03:54:32 04:02:48 65° 104° (ESE) 04:11:00 .
PCSat 23 Feb 04:02:12 04:05:12 15° 256° (WSW) 04:08:11 145.827
SRMSAT 23 Feb 04:25:35 04:28:47 15° 189° (S) 04:31:59 437.500
KKS-1 23 Feb 04:33:22 04:37:36 47° 260° (W) 04:41:54 437.445
CUBESAT XI-V 23 Feb 04:34:26 04:39:07 86° 257° (WSW) 04:43:48 437.345
RS-15 23 Feb 04:54:31 05:05:24 41° 254° (WSW) 05:15:52 29.354- 29.394
M-CUBED/EXP-1 PRIME 23 Feb 05:01:24 05:04:41 51° 255° (WSW) 05:07:53 437.505
STARS 23 Feb 05:15:11 05:19:11 36° 261° (W) 05:23:14 437.465
AO-85 23 Feb 05:24:25 05:28:56 51° 302° (WNW) 05:33:08 145.980
ITAMSAT 1 23 Feb 05:25:05 05:26:29 11° 299° (WNW) 05:27:53 435.822/435.867
STRAND 1 23 Feb 05:36:12 05:37:37 11° 62° (ENE) 05:39:02 437.568
AO-7 23 Feb 05:48:25 05:54:53 26° 302° (WNW) 06:01:22 .
CUTE-I 23 Feb 06:10:59 06:15:56 36° 98° (E) 06:20:50 437.470
KAITUO 1B 23 Feb 06:21:31 06:25:06 40° 98° (E) 06:28:38 145.475/437.950
XW-2F 23 Feb 06:21:46 06:25:29 51° 100° (E) 06:29:10 145.980 - 146.000
DOVE 4 23 Feb 06:24:13 06:28:53 65° 101° (E) 06:33:51 437.250
XW-2D 23 Feb 06:24:44 06:28:32 60° 101° (E) 06:32:16 145.860 - 145.880
XW-2B 23 Feb 06:29:42 06:33:31 68° 100° (E) 06:37:17 145.730 - 145.750
BEESAT 3 23 Feb 06:30:10 06:33:47 39° 114° (ESE) 06:37:28 437.485
XW-2C 23 Feb 06:38:13 06:42:03 89° 281° (W) 06:45:51 145.795 - 145.815
LilacSat-2 23 Feb 06:52:20 06:56:06 54° 285° (WNW) 06:59:49 437.200
NUDT-PHONESAT 23 Feb 06:59:33 07:03:16 56° 284° (WNW) 07:06:55 437.300
BEESAT 2 23 Feb 07:02:42 07:06:18 35° 114° (ESE) 07:09:57 435.950
STRAND 1 23 Feb 07:10:56 07:16:04 80° 258° (WSW) 07:21:14 437.568
HO-68 23 Feb 07:15:28 07:21:43 32° 97° (E) 07:27:55 435.675
XW-2A 23 Feb 07:19:56 07:23:11 37° 99° (E) 07:26:24 145.665 - 145.685
SEEDS 23 Feb 07:28:26 07:31:31 20° 95° (E) 07:34:35 437.485
CUTE-I 23 Feb 07:51:25 07:55:44 25° 293° (WNW) 08:00:03 437.470
CUBEBUG 2 23 Feb 07:53:01 07:57:09 29° 96° (E) 08:01:13 437.445
KAITUO 1B 23 Feb 07:57:34 07:58:42 11° 293° (WNW) 07:59:49 145.475/437.950
CUTE 1.7 + AOD 2 23 Feb 08:00:57 08:05:12 82° 104° (ESE) 08:09:23 437.475
DOVE 4 23 Feb 08:04:21 08:06:05 12° 294° (WNW) 08:07:51 437.250
ISS 23 Feb 08:05:49 08:08:47 31° 132° (SE) 08:11:45 437.550
BEESAT 3 23 Feb 08:09:07 08:11:33 16° 311° (NW) 08:14:01 437.485
SO-50 23 Feb 08:15:45 08:20:15 84° 61° (ENE) 08:24:43 436.795
AO-73 23 Feb 08:17:29 08:20:20 16° 93° (E) 08:23:08 145.935
Oscar 11 23 Feb 08:27:17 08:30:10 17° 94° (E) 08:33:02 .
PRISM 23 Feb 08:31:58 08:35:27 28° 71° (ENE) 08:38:57 437.425
UWE-3 23 Feb 08:35:28 08:40:03 52° 99° (E) 08:44:32 435.000/436.395/437.385
Tancredo 1 23 Feb 08:37:08 08:40:23 82° 137° (SE) 08:43:39 437.200
BEESAT 2 23 Feb 08:41:30 08:44:11 17° 310° (NW) 08:46:54 435.950
XW-2A 23 Feb 08:55:30 08:55:33 10° 292° (WNW) 08:55:36 145.665 - 145.685
AAUSAT CUBESAT 2 23 Feb 08:59:53 09:03:58 62° 284° (WNW) 09:08:00 437.432
ZACube-1 23 Feb 09:02:15 09:06:47 60° 100° (E) 09:11:12 437.345
HO-68 23 Feb 09:02:49 09:09:28 43° 293° (WNW) 09:16:05 435.675
SEEDS 23 Feb 09:03:40 09:07:10 27° 289° (WNW) 09:10:39 437.485
O/OREOS (USA 219) 23 Feb 09:06:54 09:11:17 44° 66° (ENE) 09:15:40 437.305
FO-29 23 Feb 09:08:06 09:13:22 23° 61° (ENE) 09:18:58 435.910
DELFI C3 23 Feb 09:20:24 09:23:19 20° 95° (E) 09:26:14 145.870
CUBEBUG 2 23 Feb 09:29:43 09:33:35 25° 290° (WNW) 09:37:25 437.445
UNISAT 6 23 Feb 09:31:30 09:35:49 53° 74° (ENE) 09:40:17 437.425
TIGRISAT 23 Feb 09:32:37 09:36:54 50° 73° (ENE) 09:41:19 435.000
ISS 23 Feb 09:42:34 09:45:16 23° 327° (NNW) 09:47:58 437.550
AO-73 23 Feb 09:52:27 09:56:41 39° 287° (WNW) 10:00:50 145.935
Oscar 11 23 Feb 10:02:28 10:06:21 33° 288° (WNW) 10:10:12 .
PRISM 23 Feb 10:07:49 10:10:43 19° 265° (W) 10:13:36 437.425
UWE-3 23 Feb 10:13:34 10:15:59 14° 294° (WNW) 10:18:22 435.000/436.395/437.385
Tancredo 1 23 Feb 10:15:21 10:17:02 13° 333° (NNW) 10:18:44 437.200
YUBILEINY 23 Feb 10:22:47 10:31:09 51° 89° (E) 10:39:32 435.215
ZACube-1 23 Feb 10:40:52 10:42:27 12° 295° (WNW) 10:44:02 437.345
O/OREOS (USA 219) 23 Feb 10:47:46 10:50:15 15° 261° (W) 10:52:44 437.305
FO-29 23 Feb 10:50:47 10:57:34 66° 259° (W) 11:05:09 435.910
DUCHIFAT 1 23 Feb 10:53:35 10:57:09 28° 71° (ENE) 11:00:46 145.980
DELFI C3 23 Feb 10:54:53 10:58:02 23° 289° (WNW) 11:01:10 145.870
EO-79 23 Feb 11:01:06 11:05:04 42° 73° (ENE) 11:09:04 145.935-145.965
AIST 2D 23 Feb 11:01:31 11:05:02 75° 77° (ENE) 11:08:35 435.315
UNISAT 6 23 Feb 11:11:14 11:12:50 12° 269° (W) 11:14:28 437.425
TIGRISAT 23 Feb 11:12:00 11:13:52 12° 269° (W) 11:15:46 435.000
POLYITAN 1 23 Feb 11:17:36 11:21:47 69° 76° (ENE) 11:26:02 437.675
NANOSAT C BR1 23 Feb 11:19:24 11:23:33 65° 75° (ENE) 11:27:45 145.865
QB50P2 23 Feb 11:20:26 11:24:39 81° 75° (ENE) 11:28:54 145.880/145.840
ESTCUBE 1 23 Feb 11:38:30 11:42:53 53° 100° (E) 11:47:14 437.505/2401.250
BUGSAT 1 23 Feb 11:59:49 12:03:45 56° 75° (ENE) 12:07:46 437.445
VELOX 1 23 Feb 12:14:10 12:18:20 41° 99° (E) 12:22:30 145.980
DX 1 23 Feb 12:14:34 12:17:23 17° 94° (E) 12:20:12 434.975-435.025
YUBILEINY 23 Feb 12:20:34 12:28:09 32° 287° (WNW) 12:35:47 435.215
DUCHIFAT 1 23 Feb 12:29:45 12:32:48 20° 265° (W) 12:35:53 145.980
UKube-1 23 Feb 12:31:14 12:34:14 18° 95° (E) 12:37:12 .
EO-79 23 Feb 12:39:00 12:41:00 13° 267° (W) 12:43:01 145.935-145.965
SPROUT 23 Feb 12:39:34 12:43:53 68° 102° (ESE) 12:48:09 437.525
Oscar 19 23 Feb 12:49:35 12:54:37 56° 73° (ENE) 12:59:40 437.125/150
50 SAT 23 Feb 12:58:29 13:01:56 71° 283° (WNW) 13:05:22 437.505
AO-7 23 Feb 13:03:23 13:06:49 13° 50° (NE) 13:10:15 .
Gurwin Techsat 1B 23 Feb 13:16:09 13:21:18 55° 73° (ENE) 13:26:29 435.225
ESTCUBE 1 23 Feb 13:17:16 13:19:11 13° 295° (WNW) 13:21:06 437.505/2401.250
ITAMSAT 1 23 Feb 13:23:30 13:23:53 10° 61° (ENE) 13:24:18 435.822/435.867
DX 1 23 Feb 13:49:40 13:53:39 35° 288° (WNW) 13:57:36 434.975-435.025
VELOX 1 23 Feb 13:51:48 13:54:25 16° 293° (WNW) 13:57:03 145.980
AO-85 23 Feb 13:58:28 14:02:16 50° 58° (ENE) 14:06:09 145.980
UKube-1 23 Feb 14:06:26 14:10:16 32° 289° (WNW) 14:14:06 .
Oscar 19 23 Feb 14:31:27 14:34:14 15° 267° (W) 14:37:00 437.125/150
ISS 23 Feb 14:36:33 14:38:29 15° 27° (NNE) 14:40:26 437.550
AO-7 23 Feb 14:49:46 14:58:02 68° 69° (ENE) 15:06:19 .
BEESAT 3 23 Feb 14:51:34 14:52:47 11° 46° (NE) 14:54:00 437.485
ITUPSAT 1 23 Feb 14:52:14 14:56:49 43° 99° (E) 15:01:21 437.325
ITAMSAT 1 23 Feb 14:57:21 15:02:33 88° 264° (W) 15:07:48 435.822/435.867
Gurwin Techsat 1B 23 Feb 14:58:26 15:01:32 16° 267° (W) 15:04:38 435.225
BEESAT 23 Feb 15:00:14 15:04:57 54° 101° (E) 15:09:36 436.000
Tancredo 1 23 Feb 15:07:00 15:09:43 24° 34° (NNE) 15:12:25 437.200
PCSat 23 Feb 15:16:34 15:18:02 11° 102° (ESE) 15:19:31 145.827
BEESAT 2 23 Feb 15:25:12 15:26:08 11° 46° (NE) 15:27:03 435.950
MOZHAYETS 4 23 Feb 15:40:29 15:44:59 52° 100° (E) 15:49:26
AO-85 23 Feb 15:41:49 15:42:11 10° 252° (WSW) 15:42:35 145.980
ISS 23 Feb 16:12:00 16:15:16 69° 223° (SW) 16:18:30 437.550
BEESAT 3 23 Feb 16:26:50 16:30:49 67° 243° (WSW) 16:34:45 437.485
KKS-1 23 Feb 16:27:06 16:31:19 39° 99° (E) 16:35:29 437.445
ITUPSAT 1 23 Feb 16:31:07 16:34:16 18° 294° (WNW) 16:37:23 437.325
CUBESAT XI-V 23 Feb 16:34:24 16:38:23 29° 96° (E) 16:42:20 437.345
BEESAT 23 Feb 16:39:44 16:42:12 14° 296° (WNW) 16:44:41 436.000
Tancredo 1 23 Feb 16:43:12 16:45:58 27° 229° (SW) 16:48:43 437.200
M-CUBED/EXP-1 PRIME 23 Feb 16:44:05 16:44:58 11° 99° (E) 16:45:52 437.505
AO-7 23 Feb 16:45:02 16:51:17 23° 265° (W) 16:57:34 .
PCSat 23 Feb 16:55:16 17:00:40 78° 297° (WNW) 17:06:07 145.827
RS-15 23 Feb 17:00:02 17:11:01 47° 108° (ESE) 17:22:25 29.354- 29.394
KAITUO 1B 23 Feb 17:00:10 17:02:01 13° 68° (ENE) 17:03:54 145.475/437.950
BEESAT 2 23 Feb 17:00:19 17:04:22 72° 242° (WSW) 17:08:22 435.950
XW-2F 23 Feb 17:00:45 17:03:12 16° 69° (ENE) 17:05:39 145.980 - 146.000
XW-2D 23 Feb 17:03:45 17:06:30 19° 70° (ENE) 17:09:16 145.860 - 145.880
STARS 23 Feb 17:07:00 17:11:18 48° 100° (E) 17:15:34 437.465
XW-2B 23 Feb 17:08:33 17:11:28 21° 71° (ENE) 17:14:24 145.730 - 145.750
XW-2C 23 Feb 17:16:42 17:19:58 27° 72° (ENE) 17:23:14 145.795 - 145.815
MOZHAYETS 4 23 Feb 17:19:22 17:21:39 14° 295° (WNW) 17:23:55
DOVE 4 23 Feb 17:27:22 17:31:16 41° 74° (ENE) 17:35:10 437.250
CUTE-I 23 Feb 17:29:45 17:34:46 44° 71° (ENE) 17:39:49 437.470
LilacSat-2 23 Feb 17:30:51 17:34:30 43° 74° (ENE) 17:38:12 437.200
NUDT-PHONESAT 23 Feb 17:35:50 17:39:18 37° 74° (ENE) 17:42:49 437.300
HO-68 23 Feb 17:42:46 17:47:18 18° 59° (ENE) 17:51:49 435.675
KKS-1 23 Feb 18:04:41 18:07:31 17° 293° (WNW) 18:10:20 437.445
CUBESAT XI-V 23 Feb 18:11:59 18:15:35 23° 291° (WNW) 18:19:11 437.345
M-CUBED/EXP-1 PRIME 23 Feb 18:15:52 18:19:30 47° 290° (WNW) 18:23:26 437.505
SEEDS 23 Feb 18:19:50 18:20:17 10° 65° (ENE) 18:20:43 437.485
KAITUO 1B 23 Feb 18:32:14 18:35:42 34° 262° (W) 18:39:13 145.475/437.950
XW-2F 23 Feb 18:33:46 18:37:05 28° 263° (W) 18:40:27 145.980 - 146.000
XW-2D 23 Feb 18:37:22 18:40:31 24° 264° (W) 18:43:41 145.860 - 145.880
XW-2B 23 Feb 18:42:32 18:45:32 22° 265° (W) 18:48:33 145.730 - 145.750
PCSat 23 Feb 18:43:20 18:44:57 11° 315° (NW) 18:46:34 145.827
STARS 23 Feb 18:44:58 18:47:11 14° 295° (WNW) 18:49:24 437.465
CUBEBUG 2 23 Feb 18:49:06 18:51:49 16° 66° (ENE) 18:54:36 437.445
CUTE 1.7 + AOD 2 23 Feb 18:50:23 18:54:20 38° 73° (ENE) 18:58:17 437.475
XW-2C 23 Feb 18:51:37 18:54:09 17° 266° (W) 18:56:42 145.795 - 145.815
DOVE 4 23 Feb 19:07:29 19:09:10 12° 268° (W) 19:10:51 437.250
LilacSat-2 23 Feb 19:08:10 19:08:59 11° 268° (W) 19:09:47 437.200
CUTE-I 23 Feb 19:11:11 19:14:58 20° 266° (W) 19:18:47 437.470
RS-15 23 Feb 19:11:54 19:23:22 51° 309° (NW) 19:35:20 29.354- 29.394
NUDT-PHONESAT 23 Feb 19:12:07 19:13:23 11° 268° (W) 19:14:38 437.300
XW-2A 23 Feb 19:20:43 19:23:57 44° 261° (W) 19:27:14 145.665 - 145.685
STRAND 1 23 Feb 19:24:39 19:29:34 45° 99° (E) 19:34:28 437.568
HO-68 23 Feb 19:26:59 19:34:11 79° 256° (WSW) 19:41:23 435.675
UWE-3 23 Feb 19:29:31 19:33:17 28° 70° (ENE) 19:37:09 435.000/436.395/437.385
AAUSAT CUBESAT 2 23 Feb 19:46:31 19:50:34 53° 75° (ENE) 19:54:38 437.432
SEEDS 23 Feb 19:51:14 19:55:25 60° 260° (W) 19:59:36 437.485
ZACube-1 23 Feb 19:54:55 19:58:49 32° 71° (ENE) 20:02:48 437.345
CUBEBUG 2 23 Feb 20:23:57 20:28:02 39° 262° (W) 20:32:17 437.445
CUTE 1.7 + AOD 2 23 Feb 20:27:47 20:30:16 15° 267° (W) 20:32:46 437.475
YUBILEINY 23 Feb 20:37:55 20:44:01 20° 68° (ENE) 20:50:03 435.215
AO-73 23 Feb 20:43:58 20:48:21 76° 259° (WSW) 20:52:53 145.935
Oscar 11 23 Feb 20:53:20 20:57:39 66° 259° (W) 21:01:59 .
STRAND 1 23 Feb 21:04:48 21:08:22 19° 294° (WNW) 21:11:56 437.568
UWE-3 23 Feb 21:06:16 21:09:42 22° 266° (W) 21:13:13 435.000/436.395/437.385
HO-68 23 Feb 21:21:43 21:22:47 10° 271° (W) 21:23:52 435.675
UNISAT 6 23 Feb 21:27:31 21:30:14 15° 92° (E) 21:32:56 437.425
TIGRISAT 23 Feb 21:28:35 21:31:07 14° 92° (E) 21:33:37 435.000
ZACube-1 23 Feb 21:31:54 21:35:07 20° 266° (W) 21:38:23 437.345
RS-15 23 Feb 21:32:19 21:40:01 18° 339° (NNW) 21:47:47 29.354- 29.394
DELFI C3 23 Feb 21:36:17 21:40:13 65° 260° (W) 21:44:10 145.870
PRISM 23 Feb 21:50:35 21:54:38 71° 101° (E) 21:58:43 437.425
JUGNU 23 Feb 21:52:10 21:54:45 13° 169° (S) 21:57:21 437.505
FO-29 23 Feb 22:05:16 22:11:15 25° 91° (E) 22:16:45 435.910
SO-50 23 Feb 22:26:40 22:31:15 56° 116° (ESE) 22:35:48 436.795
YUBILEINY 23 Feb 22:32:56 22:41:37 75° 267° (W) 22:50:16 435.215
ESTCUBE 1 23 Feb 22:35:01 22:39:04 34° 72° (ENE) 22:43:08 437.505/2401.250
UNISAT 6 23 Feb 23:02:38 23:07:08 45° 287° (WNW) 23:11:33 437.425
TIGRISAT 23 Feb 23:03:29 23:08:01 48° 287° (WNW) 23:12:28 435.000
POLYITAN 1 23 Feb 23:06:55 23:09:15 14° 93° (E) 23:11:33 437.675
NANOSAT C BR1 23 Feb 23:08:22 23:10:27 13° 93° (E) 23:12:30 145.865
VELOX 1 23 Feb 23:08:47 23:12:22 25° 70° (ENE) 23:15:57 145.980
DX 1 23 Feb 23:09:25 23:10:11 10° 64° (ENE) 23:10:58 434.975-435.025
QB50P2 23 Feb 23:09:26 23:12:11 17° 94° (E) 23:14:55 145.880/145.840
O/OREOS (USA 219) 23 Feb 23:15:53 23:20:20 86° 289° (WNW) 23:24:50 437.305
UKube-1 23 Feb 23:24:40 23:25:54 11° 64° (ENE) 23:27:08 .
50 SAT 23 Feb 23:29:55 23:32:49 24° 72° (ENE) 23:35:42 437.505
